[[{"header":{"parameterUnit":"m.s-1","parameterCategory":1,"la1":30.2991,"la2":30.254,"lo1":-89.0895,"lo2":-89.0444,"dy":0.0017,"dx":0.0017,"nx":28,"ny":28,"refTime":"2025-12-05T09:00:00:Z","depth":0,"parameterNumber":2,"parameterNumberName":"U-component_of_WINDS"},"data":[0,0,0,0,0,0,0,0,0,0,0,0,0,0,0,0,0,0,0,0,0,0,0,0,0,0,0,0,0,0,0,0,0,0,0,0,0,0,0,0,0,0,0,0,0,0,0,0,0,0,0,0,0,0,0,0,0,0,-0.2653,-0.2654,0,-0.2703,-0.2703,-0.2704,-0.27,-0.2699,-0.2698,-0.2697,-0.2751,-0.2753,-0.2755,0,0,0,0,0,0,0,0,0,0,0,0,0,-0.2557,-0.2559,-0.2653,-0.2654,-0.2654,-0.2703,-0.2703,-0.2704,-0.27,-0.2699,-0.2698,-0.2697,-0.275,-0.2753,-0.2755,0,0,0,0,0,0,0,0,0,0,0,0,0,-0.2602,-0.2559,-0.2653,-0.2658,-0.2659,-0.2702,-0.2703,-0.2704,-0.27,-0.2699,-0.2698,-0.2697,-0.2749,-0.2752,-0.2755,-0.2798,0,0,-0.2765,-0.2767,0,0,0,0,0,0,0,0,-0.2599,-0.2605,-0.2657,-0.2658,-0.2659,-0.2694,-0.2689,-0.2736,-0.27,-0.2684,-0.2697,-0.2696,-0.2733,-0.2737,-0.2749,-0.28,-0.2803,-0.2765,-0.2767,-0.2769,-0.277,0,0,0,0,0,0,0,-0.2596,-0.2603,-0.2673,-0.2657,-0.2659,-0.2658,-0.2664,-0.2698,-0.2715,-0.2686,-0.2686,-0.2691,-0.2733,-0.2746,-0.275,-0.2803,-0.2765,-0.2768,-0.277,-0.2771,-0.2893,-0.2894,0,0,0,0,0,0,-0.2592,-0.2601,-0.2671,-0.2674,-0.2626,-0.2661,-0.2667,-0.2684,-0.2714,-0.2718,-0.2692,-0.2691,-0.2741,-0.2747,-0.2752,-0.2804,-0.2769,-0.2772,-0.2774,-0.2891,-0.2893,-0.2894,0,0,0,0,0,0,-0.259,-0.2598,-0.2669,-0.2637,-0.2646,-0.2664,-0.2683,-0.2685,-0.2698,-0.2719,-0.2722,-0.2702,-0.2741,-0.2748,-0.2787,-0.2806,-0.2773,-0.2776,-0.289,-0.2892,-0.2894,-0.2909,0,0,0,0,0,0,-0.2587,-0.2597,-0.2613,-0.2638,-0.2648,-0.2702,-0.2684,-0.2687,-0.2703,-0.2702,-0.2729,-0.2733,-0.274,-0.2782,-0.279,-0.281,-0.2779,-0.2888,-0.2891,-0.2893,-0.2906,-0.2911,-0.2915,0,0,0,0,0,-0.2583,-0.2616,-0.2614,-0.2622,-0.2668,-0.2703,-0.2709,-0.2716,-0.2705,-0.2721,-0.2735,-0.2732,-0.2802,-0.2786,-0.2795,-0.2816,-0.2887,-0.289,-0.2893,-0.2905,-0.291,-0.2914,0,0,0,0,0,0,-0.2594,-0.2619,-0.2617,-0.2658,-0.2678,-0.2702,-0.2723,-0.2722,-0.2746,-0.2744,-0.2753,-0.2759,-0.2798,-0.2811,-0.2792,-0.2859,-0.2843,-0.2848,-0.2849,-0.2855,-0.2859,-0.2855,-0.2781,0,0,0,0,0,-0.2601,-0.2626,-0.2647,-0.2682,-0.2692,-0.2706,-0.2721,-0.2725,-0.2746,-0.2755,-0.2771,-0.2793,-0.282,-0.2838,-0.2864,-0.2908,-0.2914,-0.2927,-0.2931,-0.2935,-0.2939,-0.2963,-0.297,-0.2904,-0.2904,-0.2904,0,0,-0.2616,-0.2633,-0.2648,-0.2684,-0.27,-0.2727,-0.2713,-0.2742,-0.2762,-0.276,-0.2797,-0.281,-0.2835,-0.2876,-0.2896,-0.2888,-0.2958,-0.2938,-0.2941,-0.2943,-0.2967,-0.2973,-0.2979,-0.2906,-0.2905,-0.2905,0,0,-0.2657,-0.2672,-0.2702,-0.2718,-0.2742,-0.2751,-0.2759,-0.2783,-0.2791,-0.2828,-0.2827,-0.2852,-0.2898,-0.2916,-0.2931,-0.2978,-0.2977,-0.2987,-0.3008,-0.3032,-0.3037,-0.3042,-0.3059,-0.3065,-0.2991,-0.2991,-0.2991,0,-0.2672,-0.2712,-0.2718,-0.2747,-0.2763,-0.2761,-0.2793,-0.2808,-0.284,-0.2852,-0.2843,-0.2901,-0.2918,-0.2963,-0.2975,-0.2987,-0.2996,-0.2984,-0.3036,-0.3041,-0.3045,-0.3062,-0.3068,-0.2992,-0.2992,-0.2992,-0.2992,0,-0.2731,-0.2758,-0.278,-0.281,-0.2828,-0.2858,-0.2869,-0.2888,-0.289,-0.29,-0.2938,-0.2958,-0.2988,-0.2999,-0.3002,-0.3046,-0.3041,-0.3034,-0.3018,-0.3052,-0.3068,-0.3075,-0.2993,-0.2993,-0.2993,-0.2992,0,0,-0.278,-0.2812,-0.282,-0.2834,-0.286,-0.2882,-0.2912,-0.2941,-0.2956,-0.2978,-0.3004,-0.3044,-0.3037,-0.3054,-0.3059,-0.308,-0.3117,-0.3071,-0.3071,-0.3079,-0.3167,-0.3172,-0.318,-0.3116,-0.3117,-0.3118,-0.3165,0,-0.2824,-0.2877,-0.2883,-0.293,-0.2956,-0.2954,-0.2981,-0.3,-0.3011,-0.3035,-0.3046,-0.3074,-0.3063,-0.3074,-0.3094,-0.3108,-0.3135,-0.3105,-0.3141,-0.3142,-0.3135,-0.3188,-0.3194,-0.3237,-0.3171,-0.3172,-0.3173,0,-0.2882,-0.2905,-0.2955,-0.2977,-0.2988,-0.3012,-0.3039,-0.3062,-0.3084,-0.309,-0.3109,-0.3111,-0.3143,-0.3125,-0.317,-0.315,-0.3165,-0.3174,-0.3176,-0.318,-0.316,-0.3194,-0.3251,-0.3258,-0.3183,-0.3182,-0.3181,0,-0.2914,-0.2957,-0.2992,-0.3004,-0.3031,-0.3048,-0.306,-0.3081,-0.3098,-0.3122,-0.3133,-0.316,-0.3175,-0.3197,-0.3207,-0.3193,-0.3251,-0.3234,-0.3258,-0.3258,-0.3271,-0.327,-0.3332,-0.3279,-0.3279,-0.3279,-0.3279,0,-0.2963,-0.2993,-0.3007,-0.3029,-0.3063,-0.307,-0.3104,-0.3116,-0.3135,-0.3159,-0.316,-0.3183,-0.3194,-0.3219,-0.3227,-0.3263,-0.327,-0.3276,-0.3278,-0.3277,-0.3276,-0.3287,-0.3285,-0.3281,-0.328,-0.328,-0.328,0,-0.3004,-0.3015,-0.3053,-0.3075,-0.3082,-0.3106,-0.3126,-0.3147,-0.3157,-0.3188,-0.3196,-0.3212,-0.3241,-0.3253,-0.3289,-0.3295,-0.3336,-0.3336,-0.3329,-0.3329,-0.3352,-0.335,-0.3424,-0.3435,-0.3375,-0.3375,-0.3376,0,-0.3035,-0.3058,-0.3083,-0.3099,-0.3112,-0.3138,-0.3155,-0.3163,-0.318,-0.3207,-0.3226,-0.3255,-0.3279,-0.3327,-0.3342,-0.337,-0.337,-0.3394,-0.3375,-0.3372,-0.3371,-0.337,-0.3373,-0.3398,-0.3399,-0.3399,-0.34,0,-0.3089,-0.3093,-0.3117,-0.3142,-0.3162,-0.3183,-0.3204,-0.3217,-0.3228,-0.3248,-0.3278,-0.3297,-0.3333,-0.3363,-0.3392,-0.3405,-0.3405,-0.3405,-0.3413,-0.3412,-0.3407,-0.341,-0.3339,-0.3404,-0.3404,-0.3403,-0.3403,-0.3403,-0.3126,-0.3147,-0.3168,-0.3194,-0.321,-0.3229,-0.3251,-0.3263,-0.3287,-0.3317,-0.3321,-0.3353,-0.3375,-0.3413,-0.3428,-0.3454,-0.3448,-0.3458,-0.3461,-0.3463,-0.3465,-0.3402,-0.3459,-0.3459,-0.3459,-0.3459,-0.3459,0,-0.3181,-0.3193,-0.3218,-0.3246,-0.3267,-0.3264,-0.3286,-0.3304,-0.3332,-0.3352,-0.3376,-0.341,-0.3439,-0.3456,-0.3485,-0.3502,-0.3503,-0.351,-0.3509,-0.3512,-0.3469,-0.346,-0.3509,-0.3509,-0.3509,-0.3509,-0.3509,-0.3509,-0.3211,-0.3246,-0.3252,-0.3295,-0.3308,-0.3339,-0.3352,-0.337,-0.3386,-0.3424,-0.3448,-0.3458,-0.3478,-0.3508,-0.3534,-0.3539,-0.355,-0.3557,-0.3561,-0.352,-0.3515,-0.351,-0.3502,-0.3559,-0.3559,-0.3603,-0.3603,-0.3603]},{"header":{"parameterUnit":"m.s-1","parameterCategory":1,"la1":30.2991,"la2":30.254,"lo1":-89.0895,"lo2":-89.0444,"dy":0.0017,"dx":0.0017,"nx":28,"ny":28,"refTime":"2025-12-05T09:00:00:Z","depth":0,"parameterNumber":3,"parameterNumberName":"V-component_of_WINDS"},"data":[0,0,0,0,0,0,0,0,0,0,0,0,0,0,0,0,0,0,0,0,0,0,0,0,0,0,0,0,0,0,0,0,0,0,0,0,0,0,0,0,0,0,0,0,0,0,0,0,0,0,0,0,0,0,0,0,0,0,-1.7263,-1.7263,0,-1.7251,-1.7251,-1.7251,-1.7224,-1.7223,-1.7223,-1.7222,-1.7209,-1.7209,-1.721,0,0,0,0,0,0,0,0,0,0,0,0,0,-1.7262,-1.7262,-1.7263,-1.7263,-1.7263,-1.7251,-1.7251,-1.7251,-1.7224,-1.7223,-1.7222,-1.7222,-1.7209,-1.7209,-1.721,0,0,0,0,0,0,0,0,0,0,0,0,0,-1.7257,-1.7262,-1.7264,-1.7248,-1.7247,-1.7251,-1.7251,-1.7251,-1.7224,-1.7223,-1.7222,-1.7221,-1.7209,-1.7209,-1.721,-1.7228,0,0,-1.721,-1.7211,0,0,0,0,0,0,0,0,-1.7258,-1.7257,-1.7251,-1.7249,-1.7248,-1.7238,-1.7246,-1.7243,-1.7224,-1.7233,-1.7222,-1.7221,-1.7219,-1.7219,-1.7218,-1.7227,-1.7227,-1.721,-1.7211,-1.7211,-1.7211,0,0,0,0,0,0,0,-1.7258,-1.7258,-1.7259,-1.7251,-1.7249,-1.7241,-1.724,-1.7245,-1.7231,-1.7232,-1.723,-1.7229,-1.7218,-1.7218,-1.7218,-1.7227,-1.721,-1.7211,-1.7211,-1.7211,-1.7249,-1.725,0,0,0,0,0,0,-1.7261,-1.7258,-1.7259,-1.7258,-1.7251,-1.7242,-1.724,-1.7242,-1.7231,-1.7228,-1.7229,-1.7228,-1.7218,-1.7218,-1.7217,-1.7237,-1.7211,-1.7211,-1.7211,-1.7248,-1.7249,-1.725,0,0,0,0,0,0,-1.7261,-1.7261,-1.726,-1.7258,-1.7257,-1.7243,-1.7245,-1.7242,-1.7242,-1.7229,-1.7226,-1.7232,-1.7217,-1.7217,-1.7225,-1.7237,-1.7211,-1.7211,-1.7247,-1.7248,-1.7249,-1.7278,0,0,0,0,0,0,-1.7261,-1.7261,-1.7268,-1.7258,-1.7257,-1.7268,-1.7246,-1.7243,-1.7243,-1.724,-1.7231,-1.7228,-1.7217,-1.7225,-1.7226,-1.7236,-1.7212,-1.7246,-1.7248,-1.7249,-1.7276,-1.728,-1.7284,0,0,0,0,0,-1.7261,-1.7277,-1.7269,-1.7269,-1.7266,-1.7269,-1.7268,-1.7255,-1.7244,-1.725,-1.7242,-1.7228,-1.7235,-1.7226,-1.7227,-1.7238,-1.7245,-1.7247,-1.7249,-1.7274,-1.7279,-1.7284,0,0,0,0,0,0,-1.7289,-1.7276,-1.7266,-1.728,-1.7276,-1.7264,-1.7273,-1.7261,-1.726,-1.7258,-1.7241,-1.7239,-1.7249,-1.7244,-1.7234,-1.7254,-1.7238,-1.724,-1.7257,-1.7262,-1.7266,-1.7266,-1.7212,0,0,0,0,0,-1.7297,-1.7301,-1.7289,-1.7302,-1.73,-1.7287,-1.7288,-1.7278,-1.7273,-1.7271,-1.7263,-1.7258,-1.7259,-1.726,-1.7261,-1.7275,-1.7272,-1.7283,-1.7287,-1.729,-1.7292,-1.7298,-1.7302,-1.7256,-1.7256,-1.7256,0,0,-1.7314,-1.7306,-1.731,-1.7307,-1.7303,-1.7307,-1.7286,-1.7291,-1.7293,-1.7271,-1.7279,-1.7273,-1.7266,-1.7278,-1.7282,-1.7274,-1.7304,-1.7292,-1.7295,-1.7295,-1.73,-1.7305,-1.7309,-1.7257,-1.7257,-1.7257,0,0,-1.7345,-1.7341,-1.735,-1.7346,-1.734,-1.7331,-1.7333,-1.7323,-1.7318,-1.7325,-1.7309,-1.7311,-1.7313,-1.7309,-1.7308,-1.7336,-1.7324,-1.7337,-1.7357,-1.7363,-1.7367,-1.737,-1.7379,-1.7383,-1.7339,-1.7339,-1.7339,0,-1.7366,-1.7372,-1.7357,-1.7363,-1.7362,-1.7342,-1.7352,-1.7348,-1.7342,-1.7342,-1.7332,-1.7334,-1.7328,-1.7338,-1.7345,-1.7344,-1.7346,-1.7338,-1.7367,-1.737,-1.7373,-1.7382,-1.7385,-1.734,-1.734,-1.734,-1.734,0,-1.7397,-1.7401,-1.741,-1.7404,-1.7404,-1.7412,-1.7398,-1.7399,-1.7389,-1.7381,-1.7388,-1.738,-1.7378,-1.738,-1.737,-1.7387,-1.7382,-1.737,-1.7354,-1.7379,-1.7387,-1.7391,-1.7343,-1.7342,-1.7342,-1.7341,0,0,-1.7447,-1.7432,-1.7436,-1.7433,-1.7424,-1.7426,-1.7432,-1.743,-1.7432,-1.7428,-1.7432,-1.7434,-1.7423,-1.7421,-1.741,-1.7416,-1.7438,-1.7403,-1.7402,-1.7409,-1.7456,-1.7464,-1.7469,-1.7429,-1.743,-1.743,-1.7456,0,-1.7476,-1.7486,-1.7473,-1.7486,-1.7489,-1.7469,-1.7475,-1.747,-1.7462,-1.7463,-1.7454,-1.7455,-1.744,-1.7439,-1.7443,-1.7434,-1.7447,-1.7432,-1.7433,-1.7433,-1.7434,-1.7473,-1.7482,-1.7507,-1.7459,-1.746,-1.746,0,-1.7511,-1.7509,-1.7522,-1.7511,-1.7512,-1.7517,-1.7513,-1.7515,-1.7508,-1.7502,-1.7499,-1.7486,-1.7491,-1.7475,-1.7481,-1.7471,-1.747,-1.7466,-1.7466,-1.7465,-1.7448,-1.7473,-1.7514,-1.7518,-1.7465,-1.7464,-1.7464,0,-1.7545,-1.7545,-1.7553,-1.7551,-1.7539,-1.7543,-1.7538,-1.753,-1.7529,-1.7526,-1.7525,-1.7522,-1.7521,-1.7519,-1.7505,-1.7495,-1.7512,-1.7495,-1.7507,-1.7507,-1.7511,-1.7511,-1.7553,-1.7511,-1.7511,-1.7511,-1.7511,0,-1.7579,-1.7587,-1.7568,-1.7573,-1.7582,-1.7566,-1.7575,-1.7568,-1.7561,-1.7563,-1.7547,-1.7549,-1.7532,-1.7532,-1.7521,-1.7527,-1.7527,-1.7521,-1.7518,-1.7523,-1.7523,-1.7522,-1.752,-1.7512,-1.7512,-1.7512,-1.7512,0,-1.7618,-1.7606,-1.7613,-1.76,-1.7597,-1.7604,-1.7593,-1.7597,-1.7587,-1.7591,-1.7591,-1.7576,-1.7576,-1.7562,-1.7559,-1.7551,-1.7561,-1.7555,-1.7564,-1.7562,-1.7574,-1.7572,-1.7616,-1.762,-1.7576,-1.7577,-1.7577,0,-1.764,-1.7646,-1.7634,-1.7635,-1.7631,-1.7632,-1.7631,-1.7615,-1.7615,-1.7607,-1.7611,-1.7609,-1.7607,-1.7607,-1.7596,-1.7593,-1.7586,-1.7602,-1.7586,-1.759,-1.7586,-1.7585,-1.7585,-1.7605,-1.7606,-1.7606,-1.7606,0,-1.7681,-1.7674,-1.7673,-1.767,-1.7669,-1.7666,-1.7661,-1.7663,-1.7645,-1.7645,-1.7645,-1.7643,-1.7639,-1.7637,-1.7632,-1.7626,-1.7613,-1.7611,-1.7614,-1.7618,-1.7622,-1.7619,-1.7572,-1.761,-1.761,-1.761,-1.761,-1.7609,-1.7711,-1.7716,-1.7708,-1.7707,-1.7702,-1.7698,-1.77,-1.7691,-1.7691,-1.7686,-1.7677,-1.7678,-1.7669,-1.7661,-1.7656,-1.7656,-1.7648,-1.7652,-1.7653,-1.7654,-1.7656,-1.7623,-1.7655,-1.7655,-1.7655,-1.7655,-1.7655,0,-1.775,-1.7744,-1.7744,-1.7738,-1.7737,-1.7725,-1.7719,-1.7719,-1.772,-1.7714,-1.7711,-1.771,-1.7708,-1.7696,-1.7693,-1.7695,-1.7688,-1.7694,-1.7694,-1.7692,-1.7664,-1.7662,-1.7699,-1.7699,-1.7699,-1.7699,-1.7699,-1.7699,-1.777,-1.7777,-1.7769,-1.7772,-1.7765,-1.7766,-1.7763,-1.7759,-1.7754,-1.7753,-1.7751,-1.7744,-1.7735,-1.773,-1.7728,-1.7724,-1.7723,-1.7731,-1.7725,-1.7699,-1.7694,-1.769,-1.7688,-1.7731,-1.7731,-1.7754,-1.7754,-1.7754]}]]